Tyrone, NM

7:50 AM MDT on August 27, 2016 (GMT -0600)
Grant County

Weather History for KSVC - April, 2013

Change the Weather History Date:

Tuesday, April 9, 2013

  Actual Average (KDMN) Record (KDMN)
Temperature  
Mean Temperature 46 °F 58 °F  
Max Temperature 55 °F 75 °F 88 °F (1989)
Min Temperature 35 °F 40 °F 23 °F (1973)
Degree Days  
Heating Degree Days 19    
Moisture  
Dew Point 28 °F    
Average Humidity 53    
Maximum Humidity 87    
Minimum Humidity 24    
Precipitation  
Precipitation 0.04 in 0.02 in 0.00 in (2016)
Month to date precipitation 0.10  
Year to date precipitation 1.72  
Sea Level Pressure  
Sea Level Pressure 29.75 in    
Wind  
Wind Speed 22 mph (West)    
Max Wind Speed 31 mph    
Max Gust Speed 45 mph    
Visibility 9 miles    
Events Rain    
T = Trace of Precipitation, MM = Missing Value Source: NWS Daily Summary

Daily Weather History Graph

Daily Weather History Graph

Search for Another Location

Airport or City:

Trip Planner

Search our weather history database for the weather conditions in past years. The results will help you decide how hot, cold, wet, or windy it might be!

Date:

Astronomy

Apr. 09, 2013 Rise Set
Actual Time 6:50 AM MDT 7:38 PM MDT
Civil Twilight 6:25 AM MDT 8:03 PM MDT
Nautical Twilight 5:55 AM MDT 8:33 PM MDT
Astronomical Twilight 5:25 AM MDT 9:03 PM MDT
Moon 6:13 AM MDT (4/9) 7:16 PM MDT (4/9)
Length of Visible Light 13h 38m
Length of Day
12h 48m
Waning Crescent, 0% of the Moon is Illuminated
Apr 9
Waning Crescent
Apr 10
New
Apr 18
First Quarter
Apr 25
Full
May 2
Last Quarter

Hourly Weather History & Observations

Time (MDT) Temp. Windchill Dew Point Humidity Pressure Visibility Wind Dir Wind Speed Gust Speed Precip Events Conditions
12:15 AM 55.4 °F - 26.6 °F 33% 29.60 in 10.0 mi WSW 21.9 mph 31.1 mph N/A   Clear
12:35 AM 55.4 °F - 24.8 °F 31% 29.59 in 9.0 mi WSW 28.8 mph 35.7 mph N/A   Clear
12:55 AM 55.4 °F - 23.0 °F 29% 29.59 in 7.0 mi WSW 28.8 mph 40.3 mph N/A   Clear
1:15 AM 53.6 °F - 24.8 °F 33% 29.59 in 6.0 mi WSW 24.2 mph 39.1 mph N/A   Haze
1:35 AM 53.6 °F - 24.8 °F 33% 29.58 in 9.0 mi WSW 28.8 mph 44.9 mph N/A   Clear
1:55 AM 53.6 °F - 17.6 °F 24% 29.59 in 10.0 mi SW 24.2 mph 39.1 mph N/A   Clear
2:15 AM 51.8 °F - 17.6 °F 26% 29.59 in 10.0 mi WSW 18.4 mph 31.1 mph N/A   Clear
2:35 AM 51.8 °F - 19.4 °F 28% 29.58 in 10.0 mi West 25.3 mph 34.5 mph N/A   Clear
2:55 AM 50.0 °F - 23.0 °F 35% 29.57 in 10.0 mi WSW 23.0 mph 43.7 mph N/A   Clear
3:15 AM 48.2 °F - 28.4 °F 46% 29.59 in 10.0 mi West 31.1 mph 39.1 mph N/A   Clear
3:35 AM 44.6 °F 35.5 °F 32.0 °F 61% 29.62 in 10.0 mi West 25.3 mph 36.8 mph N/A   Partly Cloudy
3:55 AM 44.6 °F 36.4 °F 33.8 °F 66% 29.64 in 10.0 mi West 20.7 mph 34.5 mph N/A   Mostly Cloudy
4:35 AM 41.0 °F 30.2 °F 35.6 °F 81% 29.65 in 9.0 mi West 27.6 mph 42.6 mph 0.04 in   Mostly Cloudy
4:55 AM 39.2 °F 29.6 °F 35.6 °F 87% 29.65 in 9.0 mi West 19.6 mph 28.8 mph 0.04 in   Mostly Cloudy
5:15 AM 39.2 °F 29.6 °F 33.8 °F 81% 29.65 in 10.0 mi West 19.6 mph 26.5 mph N/A   Clear
5:35 AM 37.4 °F 25.2 °F 33.8 °F 87% 29.65 in 10.0 mi West 28.8 mph 34.5 mph N/A   Clear
5:55 AM 39.2 °F 28.7 °F 32.0 °F 75% 29.67 in 10.0 mi West 23.0 mph 34.5 mph N/A Rain Light Rain
6:15 AM 37.4 °F 27.8 °F 32.0 °F 81% 29.68 in 9.0 mi West 17.3 mph 24.2 mph N/A Rain Light Rain
6:35 AM 37.4 °F 26.9 °F 32.0 °F 81% 29.69 in 10.0 mi WNW 20.7 mph 25.3 mph N/A   Clear
6:55 AM 37.4 °F 27.5 °F 32.0 °F 81% 29.70 in 10.0 mi NW 18.4 mph 24.2 mph N/A   Clear
7:15 AM 39.2 °F 30.8 °F 32.0 °F 75% 29.71 in 7.0 mi WNW 15.0 mph - N/A   Scattered Clouds
7:35 AM 39.2 °F 31.2 °F 32.0 °F 75% 29.72 in 5.0 mi WNW 13.8 mph - N/A   Haze
7:55 AM 41.0 °F 34.3 °F 32.0 °F 70% 29.73 in 5.0 mi West 11.5 mph 17.3 mph N/A   Haze
8:15 AM 41.0 °F 33.5 °F 32.0 °F 70% 29.73 in 5.0 mi West 13.8 mph 19.6 mph N/A   Haze
8:35 AM 41.0 °F 33.9 °F 32.0 °F 70% 29.74 in 5.0 mi West 12.7 mph - N/A   Haze
8:55 AM 41.0 °F 35.2 °F 32.0 °F 70% 29.75 in 6.0 mi WSW 9.2 mph - N/A   Haze
9:15 AM 42.8 °F 35.8 °F 32.0 °F 66% 29.75 in 7.0 mi WSW 13.8 mph 18.4 mph N/A   Scattered Clouds
9:35 AM 44.6 °F 35.9 °F 28.4 °F 53% 29.74 in 8.0 mi WSW 23.0 mph 29.9 mph N/A   Mostly Cloudy
9:55 AM 44.6 °F 35.9 °F 28.4 °F 53% 29.74 in 9.0 mi West 23.0 mph 33.4 mph N/A   Scattered Clouds
10:15 AM 46.4 °F 37.9 °F 28.4 °F 50% 29.74 in 9.0 mi West 25.3 mph 35.7 mph N/A   Partly Cloudy
10:35 AM 46.4 °F 37.4 °F 26.6 °F 46% 29.75 in 10.0 mi WSW 28.8 mph 35.7 mph N/A   Partly Cloudy
10:55 AM 48.2 °F - 26.6 °F 43% 29.76 in 10.0 mi WSW 24.2 mph 36.8 mph N/A   Scattered Clouds
11:15 AM 48.2 °F - 26.6 °F 43% 29.76 in 10.0 mi West 21.9 mph 33.4 mph N/A   Scattered Clouds
11:35 AM 48.2 °F - 26.6 °F 43% 29.77 in 10.0 mi West 21.9 mph 36.8 mph N/A   Scattered Clouds
11:55 AM 50.0 °F - 26.6 °F 40% 29.77 in 10.0 mi West 27.6 mph 36.8 mph N/A   Scattered Clouds
12:15 PM 48.2 °F - 26.6 °F 43% 29.77 in 8.0 mi West 20.7 mph 38.0 mph N/A   Scattered Clouds
12:35 PM 50.0 °F - 24.8 °F 37% 29.77 in 8.0 mi West 20.7 mph 33.4 mph N/A   Partly Cloudy
12:55 PM 50.0 °F - 24.8 °F 37% 29.77 in 8.0 mi West 27.6 mph 40.3 mph N/A   Partly Cloudy
1:15 PM 46.4 °F 39.5 °F 28.4 °F 50% 29.78 in 7.0 mi West 17.3 mph 34.5 mph N/A   Mostly Cloudy
1:35 PM 50.0 °F - 24.8 °F 37% 29.77 in 9.0 mi WNW 27.6 mph 40.3 mph N/A   Mostly Cloudy
1:55 PM 50.0 °F - 21.2 °F 32% 29.77 in 9.0 mi West 28.8 mph 36.8 mph N/A   Scattered Clouds
2:15 PM 51.8 °F - 26.6 °F 38% 29.77 in 10.0 mi WNW 20.7 mph 33.4 mph N/A   Clear
2:35 PM 50.0 °F - 30.2 °F 47% 29.79 in 10.0 mi NW 26.5 mph 38.0 mph N/A   Partly Cloudy
2:55 PM 50.0 °F - 28.4 °F 43% 29.79 in 10.0 mi WNW 19.6 mph 29.9 mph N/A   Partly Cloudy
3:15 PM 50.0 °F - 26.6 °F 40% 29.79 in 10.0 mi WNW 21.9 mph 29.9 mph N/A   Scattered Clouds
3:35 PM 51.8 °F - 24.8 °F 35% 29.78 in 10.0 mi West 20.7 mph 34.5 mph N/A   Scattered Clouds
3:55 PM 53.6 °F - 23.0 °F 30% 29.79 in 10.0 mi West 20.7 mph 34.5 mph N/A   Partly Cloudy
4:15 PM 51.8 °F - 23.0 °F 33% 29.79 in 10.0 mi West 18.4 mph 33.4 mph N/A   Partly Cloudy
4:35 PM 53.6 °F - 23.0 °F 30% 29.80 in 10.0 mi WNW 20.7 mph 26.5 mph N/A   Scattered Clouds
4:55 PM 53.6 °F - 21.2 °F 28% 29.80 in 10.0 mi West 18.4 mph 27.6 mph N/A   Partly Cloudy
5:15 PM 51.8 °F - 23.0 °F 33% 29.81 in 10.0 mi NW 20.7 mph 26.5 mph N/A   Scattered Clouds
5:35 PM 50.0 °F - 24.8 °F 37% 29.82 in 10.0 mi WNW 18.4 mph 27.6 mph N/A   Scattered Clouds
5:55 PM 48.2 °F - 28.4 °F 46% 29.84 in 10.0 mi NW 25.3 mph 35.7 mph N/A   Scattered Clouds
6:15 PM 48.2 °F - 28.4 °F 46% 29.84 in 10.0 mi WNW 18.4 mph 28.8 mph N/A   Clear
6:35 PM 46.4 °F 39.5 °F 28.4 °F 50% 29.85 in 10.0 mi NW 17.3 mph 25.3 mph N/A   Clear
6:55 PM 46.4 °F 39.5 °F 28.4 °F 50% 29.85 in 10.0 mi NW 17.3 mph - N/A   Clear
7:15 PM 44.6 °F 37.2 °F 28.4 °F 53% 29.84 in 10.0 mi NW 17.3 mph - N/A   Clear
7:35 PM 44.6 °F 38.1 °F 28.4 °F 53% 29.84 in 10.0 mi NW 13.8 mph - N/A   Clear
7:55 PM 42.8 °F 35.4 °F 28.4 °F 57% 29.84 in 10.0 mi NNW 15.0 mph - N/A   Clear
8:15 PM 42.8 °F 34.8 °F 28.4 °F 57% 29.85 in 10.0 mi NW 17.3 mph 24.2 mph N/A   Clear
8:55 PM 41.0 °F 34.3 °F 28.4 °F 61% 29.87 in 10.0 mi NW 11.5 mph - N/A   Clear
9:15 PM 39.2 °F 30.8 °F 28.4 °F 65% 29.88 in 10.0 mi NW 15.0 mph - N/A   Clear
9:35 PM 39.2 °F 30.2 °F 32.0 °F 75% 29.88 in 10.0 mi NNW 17.3 mph - N/A   Clear
9:55 PM 39.2 °F 31.6 °F 32.0 °F 75% 29.88 in 10.0 mi NNW 12.7 mph - N/A   Clear
10:15 PM 39.2 °F 31.6 °F 32.0 °F 75% 29.89 in 10.0 mi NW 12.7 mph - N/A   Clear
11:15 PM 37.4 °F 33.8 °F 28.4 °F 70% 29.92 in 10.0 mi WNW 4.6 mph - N/A   Clear
11:35 PM 37.4 °F 32.1 °F 28.4 °F 70% 29.92 in 10.0 mi NNW 6.9 mph - N/A   Clear
11:55 PM 35.6 °F 30.7 °F 28.4 °F 75% 29.93 in 10.0 mi West 5.8 mph - N/A   Clear